"Pseudo-MPEC" for ZTF02ry = ZTF02s1

Created 2019 Feb 10 1:55:14 UT using Find_Orb

Click here for an explanation of pseudo-MPECs

 
 Astrometry: 
     ZTF02s1  C2019 02 09.30176309 27 58.06 +29 10 19.5    ~2A1p 17.07RUNEOCPI41
     ZTF02s1  C2019 02 09.30211009 28 06.78 +29 08 53.9    ~2A1p 17.07RUNEOCPI41
     ZTF02s1  C2019 02 09.30467909 29 11.86 +28 58 19.0    ~2A1p 16.83RUNEOCPI41
     ZTF02s1  C2019 02 09.30502609 29 20.63 +28 56 52.7    ~2A1p 16.83RUNEOCPI41
     ZTF02ry  C2019 02 09.33245609 40 09.65 +27 04 14.5    ~29NQ 17.47RUNEOCPI41
     ZTF02ry  C2019 02 09.33280409 40 17.34 +27 02 51.4    ~29NQ 17.47RUNEOCPI41
     ZTF02ry  C2019 02 09.33552109 41 17.63 +26 51 43.7    ~29NQ 17.11RUNEOCPI41
     ZTF02ry  C2019 02 09.33586809 41 25.15 +26 50 18.3    ~29NQ 17.11RUNEOCPI41

Station data:
(I41) Palomar Mountain--ZTF  (N33.357340 W116.859780)  US/California. 1.2-m
   f/2.44 Oschin Schmidt + CCD.

Orbital elements:  ZTF02ry = ZTF02s1
   Perigee 2019 Feb 9.011720 +/- 0.0153 TT =  0:16:52 (JD 2458523.511720)
Epoch 2019 Feb  9.0 TT = JDT 2458523.5                        Gray
M 355.82223966 +/- 5.4              (J2000 equator)
n 356.47273480 +/- 26.7             Peri.  333.82789 +/- 3.0
a 42519.2857 +/- 2124               Node     2.76202 +/- 0.45
e   0.6476539 +/- 0.0196            Incl.   40.43580 +/- 0.10
P1454.22m/1.010d           H 34.0   G  0.15   U 14.9
q 14981.5044 +/- 1590    Q 70057.0670 +/- 2972
From 8 observations 2019 Feb. 9 (49.1 min); mean residual 0".691
Residuals in arcseconds: 
190209 I41 1.24+ .357-    190209 I41 .179- 6.4m+    190209 I41 .637+ .218+
190209 I41 .514- .082-    190209 I41 .750+ 1.30-    190209 I41 1.05- .038-
190209 I41 .688- .508+    190209 I41 .194- 1.04+

Ephemerides:
Date (UTC) HH   RA              Dec         delta  elong  mag " sig PA
---- -- -- --  -------------   -----------  ------ -----  --- ---- ---
2019 02 10 02  04 09 17.882   +36 18 53.15   25273 105.8 17.7  33d  71
2019 02 10 03  06 07 59.853   +40 25 56.28   34258 128.6 17.7  21d  90
2019 02 10 04  07 21 14.800   +39 05 07.42   42085 142.1 17.7 926' 101
2019 02 10 05  08 09 51.864   +36 29 40.78   48713 151.2 17.8 736' 109
2019 02 10 06  08 45 00.733   +33 41 06.46   54266 157.9 17.8 620' 114
2019 02 10 07  09 12 16.123   +30 54 54.11   58861 162.9 17.8 545' 117
2019 02 10 08  09 34 35.567   +28 14 16.33   62588 166.2 17.9 497' 120
2019 02 10 09  09 53 41.011   +25 38 50.48   65515 167.9 17.9 466' 122
2019 02 10 10  10 10 35.661   +23 07 08.70   67690 167.8 18.0 450' 124
2019 02 10 11  10 26 01.674   +20 37 23.14   69149 166.2 18.1 446' 125
2019 02 10 12  10 40 29.347   +18 07 37.83   69913 163.7 18.2 454' 126
2019 02 10 13  10 54 22.311   +15 35 48.58   69992 160.7 18.3 476' 127
2019 02 10 14  11 08 00.841   +12 59 37.29   69388 157.3 18.4 513' 128
2019 02 10 15  11 21 44.346   +10 16 22.05   68093 153.6 18.5 571' 129
2019 02 10 16  11 35 53.756   +07 22 41.81   66086 149.5 18.5 659' 129
2019 02 10 17  11 50 54.530   +04 14 11.97   63338 145.1 18.5 796' 130
2019 02 10 18  12 07 21.422   +00 44 43.72   59803 140.0 18.6  17d 130
2019 02 10 19  12 26 07.443   -03 14 48.49   55418 134.2 18.6  23d 130
2019 02 10 20  12 48 43.413   -07 58 43.61   50099 127.2 18.5  37d 129
2019 02 10 21  13 18 07.822   -13 51 04.25   43735 118.2 18.5  72d 128
2019 02 10 22  14 01 22.937   -21 33 54.89   36198 105.7 18.5 155d 125
2019 02 10 23  15 20 22.246   -32 05 25.59   27453  85.7 18.6 168d 115
2019 02 11 00  18 41 43.815   -40 10 39.76   18391  46.0 20?? 175d  86
2019 02 11 01  00 03 12.078   -01 37 02.97   15499  38.4 21?? 108d  50
2019 02 11 02  03 31 46.556   +33 13 49.34   23063  96.8 17.8  57d  66
2019 02 11 03  05 45 04.269   +40 15 21.98   32226 123.5 17.7  37d  86
2019 02 11 04  07 06 48.437   +39 34 54.22   40345 138.5 17.7  28d  99
2019 02 11 05  07 59 56.436   +37 07 59.30   47245 148.5 17.8  23d 107
2019 02 11 06  08 37 37.358   +34 20 02.60   53041 155.8 17.8  19d 113
2019 02 11 07  09 06 24.380   +31 32 33.57   57852 161.2 17.9  17d 117
2019 02 11 08  09 29 42.351   +28 50 25.24   61777 165.2 17.9 963' 120
2019 02 11 09  09 49 26.691   +26 13 44.65   64888 167.6 17.9 915' 122
2019 02 11 10  10 06 47.701   +23 41 12.69   67237 168.3 17.9 894' 124
2019 02 11 11  10 22 31.472   +21 11 04.14   68863 167.3 18.0 894' 125
2019 02 11 12  10 37 10.530   +18 41 24.44   69789 165.2 18.1 919' 126
2019 02 11 13  10 51 09.737   +16 10 11.52   70029 162.3 18.2 969' 127
2019 02 11 14  11 04 49.923   +13 35 11.16   69587 159.1 18.3  18d 128
2019 02 11 15  11 18 30.498   +10 53 48.11   68456 155.5 18.4  20d 129
2019 02 11 16  11 32 31.809   +08 02 52.24   66620 151.5 18.5  23d 129
2019 02 11 17  11 47 17.923   +04 58 16.76   64050 147.2 18.5  29d 130
2019 02 11 18  12 03 20.836   +01 34 22.37   60705 142.3 18.5  39d 130
2019 02 11 19  12 21 28.096   -02 17 05.65   56528 136.7 18.5  61d 130
2019 02 11 20  12 42 58.883   -06 48 54.47   51438 130.0 18.5 124d 130
2019 02 11 21  13 10 23.404   -12 22 13.18   45332 121.5 18.5 156d 128
2019 02 11 22  13 49 19.709   -19 33 53.96   38082 110.1 18.4 131d 126
2019 02 11 23  14 56 04.048   -29 22 14.07   29608  92.5 18.5 131d 119
2019 02 12 00  17 34 27.833   -40 04 46.37   20382  59.3 19?? 153d  96
2019 02 12 01  22 57 50.724   -14 54 37.43   15002  18.8 25?? 142d  52
2019 02 12 02  02 50 12.829   +28 39 15.95   20903  86.0 18.0  78d  60
2019 02 12 03  05 19 18.757   +39 43 09.42   30136 117.7 17.7  51d  82
2019 02 12 04  06 50 50.570   +39 59 45.70   38542 134.6 17.8  39d  96
2019 02 12 05  07 49 11.384   +37 45 25.00   45721 145.6 17.8  32d 106
2019 02 12 06  08 29 44.996   +34 59 08.01   51764 153.4 17.9  28d 112
2019 02 12 07  09 00 14.441   +32 10 36.46   56798 159.4 17.9  25d 116
2019 02 12 08  09 24 37.046   +29 26 57.70   60924 163.9 17.9  24d 119
2019 02 12 09  09 45 04.018   +26 48 58.22   64221 167.0 17.9  23d 121
2019 02 12 10  10 02 53.847   +24 15 30.63   66746 168.4 17.9  23d 123
2019 02 12 11  10 18 57.113   +21 44 53.13   68539 168.2 18.0  23d 125
2019 02 12 12  10 33 48.889   +19 15 12.65   69629 166.5 18.1  24d 126
2019 02 12 13  10 47 55.459   +16 44 28.97   70030 163.9 18.2  26d 127
2019 02 12 14  11 01 38.346   +14 10 31.24   69748 160.8 18.3  29d 128
2019 02 12 15  11 15 17.090   +11 30 50.11   68780 157.3 18.4  33d 129
2019 02 12 16  11 29 11.602   +08 42 25.15   67112 153.5 18.4  41d 129
2019 02 12 17  11 43 44.785   +05 41 25.40   64717 149.2 18.5  56d 130
2019 02 12 18  11 59 26.277   +02 22 37.60   61559 144.5 18.5  93d 130
2019 02 12 19  12 16 59.002   -01 21 28.58   57584 139.1 18.5 179d 126
2019 02 12 20  12 37 32.501   -05 42 21.10   52717 132.7 18.5 124d 130
2019 02 12 21  13 03 14.400   -10 58 40.68   46861 124.7 18.5 107d 129
2019 02 12 22  13 38 39.173   -17 42 43.49   39892 114.2 18.4 104d 127
2019 02 12 23  14 36 07.401   -26 48 46.44   31703  98.4 18.4 110d 121
2019 02 13 00  16 41 21.216   -38 14 55.71   22515  70.5 19.0 131d 104
2019 02 13 01  21 43 35.303   -27 00 37.07   15309  13.4 28?? 173d  59
2019 02 13 02  02 04 30.612   +22 07 17.32   18874  73.0 18.5  98d  55
2019 02 13 03  04 50 24.034   +38 40 39.32   27998 111.2 17.7  64d  77
2019 02 13 04  06 33 08.211   +40 17 38.96   36677 130.4 17.8  49d  94
2019 02 13 05  07 37 30.668   +38 21 25.04   44140 142.4 17.8  41d 104
2019 02 13 06  08 21 20.898   +35 38 12.21   50438 151.0 17.9  36d 110
2019 02 13 07  08 53 45.003   +32 48 58.59   55698 157.4 17.9  33d 115
2019 02 13 08  09 19 19.007   +30 03 51.59   60029 162.4 17.9  31d 118
2019 02 13 09  09 40 32.650   +27 24 29.93   63515 166.0 17.9  31d 121